Hourly Weather Roundup
Issued by NWS Central Illinois

Home | Current Version | Previous Version | Text Only | Print | Product List | Glossary On
Versions: 1 2 3 4 5 6 7 8 9 10 11 12 13 14 15 16 17 18 19 20 21 22 23 24 25 26 27 28 29 30 31 32 33 34 35 36 37 38 39 40 41 42 43 44 45 46 47 48 49 50
000
NZUS43 KILX 010110
HWRILX

AREA WEATHER ROUNDUP
NATIONAL WEATHER SERVICE, LINCOLN IL
700 PM CST SAT JAN 31 2015


CITY           SKY/WX    TMP DP  RH WIND       PRES   REMARKS
BLOOMINGTON    LGT SNOW  33  33 100 S6        30.19F FOG     WCI  27
CHAMPAIGN      LGT RAIN  33  31  92 SE7       30.21F FOG     WCI  27
DECATUR        CLOUDY    34  33  96 S7        30.20F FOG     WCI  28
FLORA          CLOUDY    36  31  81 S5        30.24F WCI  32
GALESBURG      RAIN      33  33 100 SE3       30.14F
JACKSONVILLE   LGT RAIN  37  33  86 SE5       30.17F WCI  33
LACON          LGT RAIN  33  32  97 S3        30.17F
LAWRENCEVILLE  CLOUDY    37  29  72 S5        30.26R WCI  33
LITCHFIELD     DRIZZLE   35  28  74 SE6       30.18F WCI  30
$$


CITY           SKY/WX    TMP DP  RH WIND       PRES   REMARKS
LINCOLN        LGT RAIN  35  33  94 SE3       30.19F
MACOMB         CLOUDY    33  33 100 S6        30.17S FOG     WCI  28
MATTOON        LGT RAIN  34  32  92 CALM      30.19F
MT CARMEL AP   CLOUDY    39  30  70 S7        30.25F WCI  34
OLNEY-NOBLE AP CLOUDY    36  30  80 CALM      30.25S
PARIS          LGT RAIN  33  32  96 CALM      30.25F
PEORIA         LGT RAIN  35  32  88 SE3       30.17F FOG
PONTIAC        LGT SNOW  34  33  98 CALM      30.20S
RANTOUL        LGT RAIN  35  33  94 S5        30.21S WCI  31
ROBINSON       CLOUDY    35  33  92 NE9       30.22F WCI  27
SPRINGFIELD    CLOUDY    36  32  85 SE7       30.19F WCI  30
TAYLORVILLE    CLOUDY    34  32  93 SE7       30.20S WCI  28
$$

...REGIONAL REPORTS...


CITY           SKY/WX    TMP DP  RH WIND       PRES   REMARKS
CHICAGO O`HARE CLOUDY    34  28  79 CALM      30.16F
KANKAKEE       RAIN      34  33  95 SW10      30.19F WCI  26
MOLINE         LGT RAIN  34  32  92 SE3       30.13S FOG
MOUNT VERNON   CLOUDY    39  27  60 E6        30.20F WCI  35
PITTSFIELD     LGT RAIN  35  33  92 SE5       30.16F WCI  31
QUINCY         LGT RAIN  34  32  92 S8        30.13F FOG     WCI  27
ROCKFORD       FLURRIES  34  25  69 E6        30.17F WCI  29
$$


CITY           SKY/WX    TMP DP  RH WIND       PRES   REMARKS
BURLINGTON     MIX PCPN  35  35 100 S7        30.12F FOG     WCI  29
CEDAR RAPIDS   LGT RAIN  35  35 100 S5        30.08F FOG     WCI  31
DES MOINES     LGT SNOW  34  32  92 SE7       30.03F VSB 1   WCI  28
KIRKSVILLE     SNOW      33  33 100 SE9       30.08S VSB 1/2 WCI  25
OTTUMWA        LGT RAIN  35  35 100 SE9       30.07F WCI  28
ST LOUIS       LGT RAIN  42  30  62 E6        30.16F
$$


CITY           SKY/WX    TMP DP  RH WIND       PRES   REMARKS
TERRE HAUTE    LGT RAIN  34  30  85 SE5       30.25F WCI  30
EVANSVILLE     CLOUDY    40  25  55 E3        30.27F
INDIANAPOLIS   LGT SNOW  30  29  96 SW9       30.25S FOG     WCI  22
LAFAYETTE      LGT SNOW  32  31  96 SW7       30.23S FOG     WCI  26
MADISON        FLURRIES  30  22  72 NE9       30.17R WCI  22
MILWAUKEE      CLOUDY    32  22  66 NE9       30.19R WCI  24
$$





USA.gov is the U.S. government's official web portal to all federal, state and local government web resources and services.